RH
9 22 22 18 20 32 30 46 30 33 53 56 78 90 89 87 98 96 85 68 80 73 71 64 47 30 10 14 22 32 37 38 37 29 27 23 19 8 4 5 9 7 6
10 14 18 25 38 33 50 44 37 45 43 67 89 73 63 61 87 89 92 81 100 84 79 69 72 61 56 22 13 24 30 40 37 38 54 44 27 13 7 6 9 10 7
8 10 33 41 31 33 39 41 46 55 42 52 78 87 73 50 65 54 56 63 79 81 96 76 71 76 74 68 59 28 18 22 30 33 36 34 30 19 8 8 11 12 8
27 26 33 41 42 37 41 43 46 66 77 75 71 86 84 56 45 41 46 44 48 73 99 90 76 87 95 86 75 75 62 42 34 42 44 32 50 45 26 24 16 10 7
35 25 31 39 29 25 28 32 40 52 60 68 82 88 91 73 60 46 43 56 57 66 78 77 87 80 84 87 81 81 91 92 77 66 67 45 50 53 41 28 8 10 21
22 22 34 33 26 35 40 46 50 59 63 76 76 94 97 95 64 60 48 47 65 62 78 80 82 84 96 92 92 92 96 96 96 76 66 33 31 27 15 13 18 28 20
22 26 32 31 25 41 48 58 61 67 80 90 95 86 96 88 72 67 62 57 70 64 74 74 71 82 90 90 78 94 83 90 89 85 50 48 32 18 14 7 10 20 20
28 36 45 55 60 65 72 80 74 84 99 100 99 89 91 63 61 64 61 62 75 70 77 82 75 76 78 76 80 80 85 98 97 93 48 33 22 24 15 11 15 21 19
35 39 46 49 58 72 73 76 81 96 96 91 88 84 72 67 59 56 66 69 77 98 79 79 74 73 78 79 68 72 73 78 92 50 28 26 26 26 22 15 17 20 17
55 50 53 50 54 66 63 68 87 98 100 72 58 59 61 49 63 69 79 67 58 97 91 72 82 85 66 76 86 57 67 52 42 40 33 30 33 28 21 24 25 21 18
64 62 58 53 51 57 61 72 81 98 97 89 77 63 50 36 70 77 93 83 64 58 61 78 74 61 64 65 56 56 42 38 35 34 30 40 32 26 25 24 21 18 50
62 58 63 57 53 53 53 54 58 78 94 84 59 69 44 41 50 70 95 88 58 56 71 85 65 64 73 68 73 54 44 39 43 47 45 38 34 35 35 31 28 42 66
72 63 68 55 52 47 46 50 62 64 47 35 39 50 50 57 77 77 71 60 60 67 91 71 62 66 59 58 64 54 34 45 47 47 47 44 40 36 40 35 37 50 69
69 73 80 62 53 56 55 66 67 35 36 25 33 32 42 43 49 47 51 53 54 94 76 68 56 59 61 49 30 32 47 49 39 32 42 48 43 48 51 40 36 36 43
64 68 69 66 63 62 66 71 64 50 25 30 34 37 34 31 33 38 40 50 68 65 60 59 61 53 38 28 28 36 39 38 34 30 44 54 60 67 59 42 41 38 42
68 75 65 63 66 69 73 68 46 28 25 34 36 31 26 20 32 26 38 64 81 74 61 47 41 35 24 26 26 15 12 10 22 35 60 65 70 67 53 44 45 44 45
65 63 67 71 68 64 62 48 34 14 23 40 31 14 10 12 42 60 64 76 74 62 52 42 29 22 14 12 16 22 31 41 48 47 54 67 69 58 47 47 53 48 59
64 73 65 58 58 48 37 16 18 28 33 31 8 10 23 44 59 62 67 69 68 55 34 25 20 16 15 10 11 19 33 42 52 65 74 68 56 46 52 49 42 43 46
50 61 54 42 27 13 10 22 31 24 16 8 14 50 76 74 65 63 74 56 45 31 17 14 9 8 8 10 16 32 47 51 57 54 47 43 44 49 41 30 30 30 30
58 60 48 24 15 26 32 25 11 7 6 10 56 50 80 75 69 73 56 47 34 12 9 8 8 9 10 15 20 33 42 44 47 49 48 47 47 42 36 34 32 29 27
34 21 18 25 30 20 10 6 6 10 29 47 33 40 92 79 60 43 38 30 23 12 8 9 9 10 11 18 23 31 42 57 55 54 54 51 48 45 43 40 36 32 29
17 27 27 18 14 7 8 11 17 23 45 56 58 61 64 56 36 24 23 18 10 9 9 9 10 9 9 14 20 30 44 52 46 40 42 42 36 29 26 24 23 22 22
27 19 13 7 6 10 14 22 20 26 51 48 29 26 33 38 31 20 16 9 9 10 10 9 10 9 7 8 15 20 25 39 36 31 32 32 24 18 20 14 10 11 14
8 8 8 9 12 16 17 18 36 41 35 24 18 17 25 29 26 13 9 9 11 12 11 9 9 8 8 7 7 13 15 12 13 18 23 25 16 18 12 10 10 10 9
11 10 12 13 18 22 20 23 28 32 28 27 28 30 33 28 14 8 9 11 12 13 13 12 9 9 10 12 8 8 10 12 12 17 19 20 18 10 12 12 13 12 11
14 17 18 17 18 17 19 26 27 27 30 31 26 14 21 15 8 10 11 13 14 14 14 14 14 14 15 16 13 11 11 11 14 17 18 18 12 11 13 19 19 15 14
Wind_Speed
18 19 18 17 13 14 13 10 16 13 20 22 30 32 30 35 36 36 36 33 33 32 31 33 33 32 31 31 30 30 27 27 32 32 32 34 35 38 39 39 42 43 49
19 21 18 14 13 12 11 17 19 17 19 25 28 28 24 28 22 22 25 37 39 34 31 33 34 32 33 34 34 34 39 41 39 36 36 39 41 41 41 43 46 51 53
17 15 16 14 15 17 21 21 17 23 21 27 30 27 27 26 25 25 29 36 37 35 38 34 33 33 34 34 37 39 40 42 43 42 45 46 44 44 44 48 52 52 55
17 17 17 17 18 20 20 17 25 22 28 32 32 30 29 32 30 32 36 36 36 36 35 40 36 35 33 35 36 36 39 42 44 44 41 38 49 53 54 54 54 56 58
20 19 20 20 16 18 21 23 27 29 33 35 37 35 32 34 36 38 40 37 38 34 35 39 44 38 35 40 42 44 45 45 42 46 50 48 54 60 57 57 52 55 54
20 20 21 15 16 19 22 25 30 35 39 42 45 44 46 42 41 41 37 40 40 37 37 38 42 41 41 41 41 43 42 42 40 45 42 43 49 59 56 56 54 52 49
20 18 23 23 25 24 25 29 36 41 45 50 53 51 50 48 38 42 42 40 43 41 38 34 33 37 42 39 33 35 34 36 44 45 44 50 53 56 57 56 55 53 49
23 21 22 25 26 29 34 37 42 46 49 50 55 50 49 45 41 44 43 40 38 37 37 35 35 38 31 35 34 40 43 42 46 51 48 52 53 55 56 56 52 52 48
29 25 24 27 31 35 37 41 45 49 54 47 46 51 52 51 50 45 42 41 38 38 38 40 38 33 35 37 41 44 46 46 51 53 54 54 55 56 57 56 53 50 46
30 28 29 31 33 37 39 41 48 56 53 50 48 51 55 53 48 41 38 36 37 43 40 39 40 41 44 49 53 46 43 47 50 55 57 56 58 56 52 48 44 43 40
36 33 33 36 39 40 42 46 47 55 56 55 55 53 52 50 45 41 39 39 32 37 45 45 40 42 45 46 47 48 48 52 56 57 57 57 52 50 47 45 40 39 40
42 40 40 44 44 44 46 46 50 53 58 60 54 53 47 44 44 39 39 37 40 43 45 40 45 44 44 46 49 49 53 54 53 51 49 48 44 40 39 37 37 38 38
46 44 46 45 46 47 51 53 55 57 56 55 50 46 45 44 38 38 42 43 45 42 43 47 44 42 47 50 53 54 51 47 45 45 46 41 38 37 35 34 35 35 33
48 49 46 46 50 53 53 56 53 51 55 49 45 44 41 41 41 44 45 46 44 40 45 43 47 48 51 50 48 44 43 43 42 43 41 37 34 33 34 34 34 34 34
49 49 50 56 54 55 55 56 51 53 49 48 48 48 49 49 46 44 45 43 39 45 46 46 49 49 47 44 42 41 42 43 43 42 38 34 33 33 32 33 34 33 32
48 48 53 57 59 58 60 56 49 49 48 47 46 46 46 46 44 47 44 42 41 45 46 47 45 43 43 43 44 41 40 39 38 38 35 34 33 32 31 32 32 31 30
49 50 56 59 58 58 57 53 53 50 46 46 44 44 46 45 44 41 41 42 43 41 40 40 40 40 37 37 39 39 39 38 37 35 34 33 33 31 29 30 28 28 28
53 55 56 58 54 53 53 53 46 44 45 45 44 45 41 40 40 39 38 39 37 37 38 38 36 35 35 35 36 36 35 35 34 33 32 32 31 28 27 26 26 26 26
51 51 52 52 52 52 51 50 49 45 45 43 44 39 37 36 35 37 33 34 33 32 32 32 32 35 37 35 34 33 33 33 34 33 31 28 25 24 24 23 23 23 24
54 51 50 49 48 48 48 46 43 44 46 41 35 37 34 39 40 34 31 31 30 29 30 32 31 33 32 31 31 30 31 29 27 24 23 22 22 23 24 25 25 24 24
48 45 47 50 47 42 42 43 44 42 39 39 40 36 34 33 30 27 29 25 28 29 27 30 30 29 30 28 28 27 26 24 23 22 22 22 23 24 26 26 26 26 25
46 45 46 42 42 40 40 39 39 40 40 42 40 36 30 27 26 27 26 27 25 27 29 29 28 27 28 26 24 24 24 24 24 23 22 22 23 25 27 28 29 28 28
42 40 39 41 40 36 36 39 39 37 31 31 30 28 23 24 24 24 25 23 25 26 27 26 25 26 27 27 25 23 23 23 22 22 22 24 26 27 27 28 27 26 25
40 39 41 39 36 34 37 35 31 29 30 30 28 25 24 23 23 25 22 22 23 22 22 23 22 23 23 24 25 24 23 23 23 23 24 25 26 26 26 25 24 22 23
41 40 36 34 31 31 32 29 29 31 30 29 27 26 25 24 23 21 21 23 21 20 20 21 21 22 25 25 23 22 22 22 19 21 21 20 21 22 20 20 20 20 21
35 33 32 30 29 30 30 31 30 29 27 26 27 25 21 21 22 21 22 22 22 22 21 20 21 22 23 24 23 21 21 21 21 21 21 20 20 17 18 19 19 19 19
Wind_Direction
243 239 244 249 256 277 299 326 338 344 337 341 345 342 334 329 288 296 269 287 284 285 285 282 279 277 275 275 275 276 270 274 281 284 291 294 299 292 286 283 286 282 289
233 231 232 242 267 281 306 329 333 343 334 348 342 338 344 334 349 338 298 292 288 285 288 293 281 277 277 274 273 274 275 281 281 278 297 302 298 290 284 280 287 290 290
246 240 242 252 275 289 305 315 337 340 338 336 337 335 330 325 320 318 310 300 290 288 279 289 283 281 287 278 273 272 274 277 278 281 290 290 291 294 283 279 283 289 294
269 275 273 276 293 302 301 311 327 335 335 334 332 330 327 321 321 323 311 304 305 291 280 287 288 284 288 282 278 280 281 281 284 286 291 290 298 293 289 287 284 287 291
277 288 288 285 302 308 313 327 329 327 329 323 322 316 322 316 312 315 316 307 303 297 292 285 285 287 284 286 280 281 282 281 284 283 283 288 287 289 291 287 287 289 294
282 288 287 284 291 327 328 325 322 321 320 320 317 315 318 308 308 307 312 308 300 290 290 292 288 287 281 296 291 285 293 288 296 294 286 287 286 291 293 292 291 296 300
270 283 287 294 279 300 317 315 318 319 317 316 310 308 309 310 308 306 299 303 297 292 287 290 292 292 291 298 293 288 286 287 283 283 292 287 289 293 293 293 299 302 302
252 281 301 305 309 309 307 308 309 309 307 309 309 307 311 307 308 306 301 297 293 290 283 290 285 294 294 298 287 298 298 286 280 289 286 284 291 295 294 297 303 302 303
259 273 295 303 305 304 304 303 302 301 301 309 310 304 305 305 303 300 296 292 289 286 291 287 277 276 295 292 292 292 295 291 285 289 289 293 300 300 298 300 301 301 302
270 274 284 292 296 297 296 296 300 301 305 305 299 300 306 303 297 295 292 291 297 282 293 291 279 280 293 290 291 295 289 290 290 289 291 293 296 300 302 301 301 302 298
269 274 282 288 290 295 294 296 297 298 303 300 298 300 303 300 291 292 288 286 290 291 292 282 284 288 291 290 292 290 291 291 289 289 291 297 299 300 298 297 298 298 299
270 275 280 282 288 289 289 293 294 295 298 301 296 295 296 300 297 291 285 292 295 296 285 284 302 294 287 287 287 287 292 292 291 294 296 298 300 298 299 299 300 301 304
267 273 277 283 286 287 293 298 296 296 298 298 297 294 295 294 288 291 293 295 296 294 284 292 292 287 288 289 288 290 294 293 297 298 300 299 298 299 299 301 300 304 304
260 262 272 283 280 287 291 294 291 291 296 292 295 296 294 294 291 292 291 293 293 280 291 287 287 289 290 292 292 293 293 295 296 297 297 297 295 296 297 300 304 304 303
267 264 280 279 281 283 284 289 286 289 291 297 296 293 295 295 295 293 294 296 293 291 289 288 292 292 292 293 293 292 292 293 293 296 296 292 292 295 297 300 304 302 304
264 276 275 279 285 286 285 283 283 290 292 293 293 295 294 296 295 294 294 294 293 291 292 291 290 292 295 295 297 296 296 294 295 294 294 293 294 295 298 300 300 302 304
270 271 276 280 284 281 281 287 290 291 293 292 294 295 295 295 295 295 296 294 291 291 291 291 293 293 296 295 295 295 296 297 297 295 294 294 293 295 297 298 299 302 305
269 272 273 279 279 284 289 294 290 287 291 292 294 297 298 299 299 299 296 292 295 294 292 291 292 293 294 295 296 297 297 297 297 295 294 293 293 294 295 298 302 302 304
268 276 280 286 289 291 291 289 286 290 292 297 299 300 302 299 300 303 298 297 297 296 296 294 295 297 299 299 299 298 296 296 295 295 297 295 291 291 293 299 303 304 306
274 281 286 286 286 286 287 285 289 293 295 295 295 298 302 298 299 299 297 297 296 298 302 303 306 307 308 305 300 298 297 296 298 300 298 293 291 291 294 297 299 302 305
280 283 282 281 282 282 283 290 292 292 290 292 296 299 293 292 296 294 299 298 301 303 303 306 313 314 313 308 303 298 296 298 301 303 299 296 296 296 296 297 298 299 300
279 277 275 276 281 285 288 287 287 291 291 291 295 297 294 294 294 300 300 300 301 301 308 310 312 314 315 314 310 303 298 299 301 299 298 299 300 300 298 296 294 294 295
272 272 278 280 282 282 286 287 288 287 286 287 290 290 288 289 293 296 296 297 306 311 310 309 311 316 319 317 313 309 307 303 301 301 302 303 304 304 301 299 296 294 292
271 274 275 277 279 284 282 284 280 281 286 286 284 281 283 287 293 294 296 304 306 308 310 308 310 314 321 325 316 307 305 304 300 299 301 301 304 304 304 301 299 299 294
272 272 274 275 279 277 278 277 276 279 279 278 279 285 285 287 287 286 296 300 299 303 306 310 310 308 313 317 319 315 311 308 306 309 308 305 307 308 309 310 311 307 298
267 268 269 271 270 271 272 273 274 274 272 274 280 276 272 277 282 292 297 297 298 297 298 301 306 310 313 313 313 317 316 311 306 307 308 307 307 304 309 316 314 314 308